Date String (YYYY-MM-DD hh:mm:ss) UTC,Instrument flags,Ambient pressure (hPa),Sample flow (lpm),Bypass flow (lpm),Sample temperature (°C),Ambient temperature (°C),ASC tube jacket temperature (°C),LED temperature (°C),Box temperature (°C),Sample RH (%),Span deviation,Mass concentration (μg/m³),Mass concentration (μg/m³),Mass concentration (μg/m³)
DateTimeUTC,F1_M11,P_M11,Q1_M11,Q2_M11,T1_M11,T2_M11,T3_M11,T4_M11,T5_M11,U1_M11,ZSPAN_M11,X0_M11,X2_M11,X1_M11
2022-02-13 10:00:00,,0830.9,5.01,0.00,22.5,21.8,00.0,31.4,24.2,09.1,0000.0,0003.84,0001.68,0001.28
2022-02-13 10:01:00,,0830.9,5.01,0.00,22.4,21.8,00.0,31.4,24.2,09.3,0000.0,0003.93,0001.72,0001.31
2022-02-13 10:02:00,,0830.9,5.00,0.00,22.4,21.7,00.0,31.4,24.1,09.1,0000.0,0003.98,0001.73,0001.32
2022-02-13 10:03:00,,0830.9,4.99,0.00,22.4,21.7,00.0,31.4,24.1,09.0,0000.0,0003.54,0001.71,0001.29
2022-02-13 10:04:00,,0830.9,5.01,0.00,22.4,21.6,00.0,31.4,24.1,08.9,0000.0,0003.15,0001.67,0001.26
2022-02-13 10:05:00,,0830.9,5.00,0.00,22.4,21.5,00.0,31.4,24.1,08.6,0000.0,0003.06,0001.61,0001.20
2022-02-13 10:06:00,,0830.9,5.00,0.00,22.3,21.5,00.0,31.3,24.1,08.5,0000.0,0002.88,0001.53,0001.12
2022-02-13 10:07:00,,0830.9,5.00,0.00,22.3,21.3,00.0,31.3,24.0,08.9,0000.0,0002.76,0001.45,0001.05
2022-02-13 10:08:00,,0830.9,4.99,0.00,22.3,21.2,00.0,31.3,24.0,09.0,0000.0,0002.49,0001.32,0000.95
2022-02-13 10:09:00,,0830.9,5.02,0.00,22.2,21.2,00.0,31.3,24.0,09.4,0000.0,0002.27,0001.25,0000.88
2022-02-13 10:10:00,,0830.9,4.99,0.00,22.2,21.3,00.0,31.3,23.9,09.6,0000.0,0002.22,0001.29,0000.90
2022-02-13 10:11:00,,0830.9,5.01,0.00,22.2,21.2,00.0,31.3,23.9,09.6,0000.0,0002.31,0001.36,0000.93
2022-02-13 10:12:00,,0831.0,4.99,0.00,22.1,21.1,00.0,31.2,23.8,09.6,0000.0,0002.46,0001.38,0000.91
2022-02-13 10:13:00,,0830.9,5.00,0.00,22.1,21.1,00.0,31.2,23.8,09.6,0000.0,0002.65,0001.44,0000.94
2022-02-13 10:14:00,,0830.9,4.99,0.00,22.1,21.1,00.0,31.2,23.8,09.4,0000.0,0002.82,0001.55,0001.01
2022-02-13 10:15:00,,0831.0,5.00,0.00,22.1,21.2,00.0,31.2,23.8,09.3,0000.0,0002.98,0001.64,0001.07
2022-02-13 10:16:00,,0830.9,5.01,0.00,22.1,21.2,00.0,31.1,23.8,09.4,0000.0,0003.36,0001.77,0001.12
2022-02-13 10:17:00,,0830.9,4.99,0.00,22.1,21.2,00.0,31.1,23.8,09.5,0000.0,0003.61,0001.82,0001.18
2022-02-13 10:18:00,,0830.9,5.01,0.00,22.1,21.2,00.0,31.1,23.8,09.6,0000.0,0003.83,0001.92,0001.24
2022-02-13 10:19:00,,0830.9,5.00,0.00,22.1,21.3,00.0,31.1,23.8,09.7,0000.0,0004.20,0002.07,0001.33
2022-02-13 10:20:00,,0830.9,4.99,0.00,22.2,21.9,00.0,31.1,24.0,09.6,0000.0,0004.43,0002.17,0001.40
2022-02-13 10:21:00,,0830.9,5.00,0.00,22.3,22.7,00.0,31.2,24.2,09.6,0000.0,0004.61,0002.21,0001.44
2022-02-13 10:22:00,,0831.0,4.99,0.00,22.4,23.1,00.0,31.2,24.4,09.4,0000.0,0004.64,0002.22,0001.47
2022-02-13 10:23:00,,0830.9,5.00,0.00,22.5,22.9,00.0,31.2,24.5,09.4,0000.0,0004.73,0002.21,0001.50
2022-02-13 10:24:00,,0830.8,5.01,0.00,22.5,22.7,00.0,31.3,24.4,09.4,0000.0,0005.19,0002.22,0001.54
2022-02-13 10:25:00,,0830.8,4.99,0.00,22.5,22.5,00.0,31.3,24.4,09.5,0000.0,0005.38,0002.29,0001.59
2022-02-13 10:26:00,,0830.7,5.01,0.00,22.5,22.3,00.0,31.3,24.4,09.4,0000.0,0005.67,0002.43,0001.65
2022-02-13 10:27:00,,0830.7,5.00,0.00,22.5,22.2,00.0,31.3,24.3,09.3,0000.0,0005.58,0002.41,0001.66
2022-02-13 10:28:00,,0830.7,4.99,0.00,22.5,22.0,00.0,31.3,24.3,09.2,0000.0,0005.47,0002.37,0001.64
2022-02-13 10:29:00,,0830.7,5.01,0.00,22.5,21.9,00.0,31.3,24.3,09.2,0000.0,0005.36,0002.33,0001.62
2022-02-13 10:30:00,,0830.7,5.00,0.00,22.5,21.9,00.0,31.3,24.2,09.1,0000.0,0005.31,0002.24,0001.57
2022-02-13 10:31:00,,0830.7,4.99,0.00,22.4,21.8,00.0,31.3,24.2,09.0,0000.0,0005.03,0002.11,0001.50
2022-02-13 10:32:00,,0830.7,5.02,0.00,22.4,21.7,00.0,31.3,24.2,09.1,0000.0,0004.90,0002.07,0001.48
2022-02-13 10:33:00,,0830.8,4.99,0.00,22.4,21.7,00.0,31.3,24.2,09.4,0000.0,0005.21,0002.15,0001.51
2022-02-13 10:34:00,,0830.7,5.01,0.00,22.4,21.7,00.0,31.3,24.2,09.5,0000.0,0006.22,0002.21,0001.54
2022-02-13 10:35:00,,0830.8,4.99,0.00,22.4,21.6,00.0,31.3,24.1,09.5,0000.0,0006.01,0002.31,0001.57
2022-02-13 10:36:00,,0830.7,5.01,0.00,22.4,21.6,00.0,31.3,24.1,09.6,0000.0,0006.14,0002.39,0001.61
2022-02-13 10:37:00,,0830.7,5.01,0.00,22.4,21.6,00.0,31.3,24.1,09.4,0000.0,0006.12,0002.30,0001.58
2022-02-13 10:38:00,,0830.7,4.99,0.00,22.4,21.5,00.0,31.3,24.1,09.4,0000.0,0006.17,0002.40,0001.64
2022-02-13 10:39:00,,0830.7,5.00,0.00,22.4,21.5,00.0,31.3,24.1,09.3,0000.0,0006.24,0002.53,0001.71
2022-02-13 10:40:00,,0830.7,5.00,0.00,22.3,21.5,00.0,31.3,24.1,09.3,0000.0,0006.41,0002.56,0001.74
2022-02-13 10:41:00,,0830.7,4.99,0.00,22.3,21.5,00.0,31.3,24.1,09.4,0000.0,0006.42,0002.68,0001.84
2022-02-13 10:42:00,,0830.7,5.02,0.00,22.3,21.5,00.0,31.3,24.1,09.6,0000.0,0007.44,0002.88,0001.95
2022-02-13 10:43:00,,0830.8,4.99,0.00,22.3,21.5,00.0,31.3,24.1,09.6,0000.0,0007.79,0003.01,0002.04
2022-02-13 10:44:00,,0830.8,4.99,0.00,22.3,21.4,00.0,31.3,24.0,09.6,0000.0,0007.73,0003.00,0002.06
2022-02-13 10:45:00,,0830.7,5.02,0.00,22.3,21.4,00.0,31.3,24.0,09.5,0000.0,0007.09,0003.03,0002.08
2022-02-13 10:46:00,,0830.7,4.99,0.00,22.3,21.4,00.0,31.3,24.0,09.5,0000.0,0006.73,0002.97,0002.06
2022-02-13 10:47:00,,0830.8,4.99,0.00,22.3,21.8,00.0,31.3,24.0,09.5,0000.0,0006.61,0002.89,0002.03
2022-02-13 10:48:00,,0830.7,5.00,0.00,22.4,22.6,00.0,31.3,24.2,09.4,0000.0,0006.56,0002.89,0002.04
2022-02-13 10:49:00,,0830.7,5.00,0.00,22.5,23.1,00.0,31.3,24.4,09.4,0000.0,0006.40,0002.82,0002.03
2022-02-13 10:50:00,,0830.7,5.00,0.00,22.6,23.0,00.0,31.3,24.5,09.4,0000.0,0006.36,0002.80,0002.04
2022-02-13 10:51:00,,0830.6,4.99,0.00,22.6,22.7,00.0,31.4,24.5,09.4,0000.0,0006.33,0002.85,0002.06
2022-02-13 10:52:00,,0830.6,5.01,0.00,22.6,22.5,00.0,31.4,24.5,09.4,0000.0,0006.24,0002.80,0002.04
2022-02-13 10:53:00,,0830.6,4.99,0.00,22.6,22.4,00.0,31.4,24.4,09.4,0000.0,0004.99,0002.70,0001.98
2022-02-13 10:54:00,,0830.6,5.01,0.00,22.6,22.2,00.0,31.4,24.4,09.4,0000.0,0004.61,0002.64,0001.95
2022-02-13 10:55:00,,0830.5,5.00,0.00,22.6,22.1,00.0,31.4,24.4,09.3,0000.0,0004.79,0002.59,0001.93
2022-02-13 10:56:00,,0830.6,4.99,0.00,22.6,22.0,00.0,31.4,24.4,09.2,0000.0,0004.63,0002.54,0001.92
2022-02-13 10:57:00,,0830.6,5.01,0.00,22.5,21.9,00.0,31.4,24.3,09.1,0000.0,0005.58,0002.51,0001.93
2022-02-13 10:58:00,,0830.6,4.99,0.00,22.5,21.9,00.0,31.4,24.3,09.2,0000.0,0005.77,0002.58,0001.96
2022-02-13 10:59:00,,0830.6,5.00,0.00,22.5,21.8,00.0,31.4,24.3,09.1,0000.0,0006.18,0002.63,0002.00
